JZA401 CYYC-CYMM

Flight info

Callsign JZA401
Flight time 1h 16m
Altitude 31000
Route AVROM Q933 MAPUX DCT DAVEL DCT LEXON LEXON5
Aircraft CRJ9/M-SDFGIRWY/S

Departure

Time 2026-05-05 22:17
Airport Calgary International Airport (CYYC)

Arrival

Time 2026-05-05 23:34
Airport Fort McMurray International Airport (CYMM)
Time Latitude Longitude Altitude Speed Heading
2026-05-05 21:49 51.12852 -114.01283 3564 ft 0 kts 12°
2026-05-05 21:56 51.12853 -114.01283 3564 ft 0 kts 12°
2026-05-05 22:03 51.12853 -114.01282 3564 ft 0 kts 12°
2026-05-05 22:05 51.12853 -114.01283 3564 ft 0 kts 12°
2026-05-05 22:09 51.12853 -114.01282 3564 ft 1 kts 12°
2026-05-05 22:10 51.12871 -114.01264 3559 ft 5 kts 59°
2026-05-05 22:10 51.12861 -114.01191 3561 ft 9 kts 127°
2026-05-05 22:10 51.12816 -114.01094 3565 ft 12 kts 126°
2026-05-05 22:10 51.12767 -114.00981 3565 ft 13 kts 112°
2026-05-05 22:11 51.12747 -114.00862 3566 ft 9 kts 96°
2026-05-05 22:11 51.12701 -114.00791 3565 ft 12 kts 174°
2026-05-05 22:11 51.12625 -114.00758 3566 ft 11 kts 122°
2026-05-05 22:11 51.12616 -114.00638 3568 ft 13 kts 89°
2026-05-05 22:12 51.12616 -114.00448 3571 ft 21 kts 91°
2026-05-05 22:12 51.12615 -114.00225 3575 ft 18 kts 90°
2026-05-05 22:12 51.12616 -114.00019 3579 ft 19 kts 90°
2026-05-05 22:12 51.12615 -113.99827 3583 ft 16 kts 90°
2026-05-05 22:13 51.12616 -113.99655 3587 ft 17 kts 90°
2026-05-05 22:13 51.12597 -113.99467 3585 ft 17 kts 139°
2026-05-05 22:13 51.12477 -113.99444 3582 ft 19 kts 180°
2026-05-05 22:13 51.12332 -113.99443 3587 ft 22 kts 179°
2026-05-05 22:14 51.12168 -113.99443 3575 ft 24 kts 180°
2026-05-05 22:14 51.11998 -113.99444 3576 ft 24 kts 180°
2026-05-05 22:14 51.11831 -113.99446 3576 ft 24 kts 180°
2026-05-05 22:14 51.11667 -113.99447 3572 ft 23 kts 180°
2026-05-05 22:15 51.11506 -113.99448 3572 ft 23 kts 180°
2026-05-05 22:15 51.11348 -113.99448 3574 ft 22 kts 180°
2026-05-05 22:15 51.11195 -113.99449 3572 ft 22 kts 180°
2026-05-05 22:15 51.11074 -113.99443 3566 ft 12 kts 161°
2026-05-05 22:16 51.11037 -113.99337 3573 ft 13 kts 97°
2026-05-05 22:16 51.11034 -113.99198 3577 ft 13 kts 90°
2026-05-05 22:16 51.11053 -113.99051 3576 ft 13 kts 30°
2026-05-05 22:16 51.11180 -113.99038 3570 ft 37 kts
2026-05-05 22:17 51.11666 -113.99038 3579 ft 101 kts
2026-05-05 22:17 51.12555 -113.99036 3592 ft 152 kts 360°
2026-05-05 22:17 51.13710 -113.99031 3841 ft 174 kts
2026-05-05 22:17 51.14922 -113.99047 4698 ft 177 kts 359°
2026-05-05 22:18 51.16225 -113.99057 5220 ft 199 kts 360°
2026-05-05 22:18 51.17657 -113.99095 5768 ft 211 kts 359°
2026-05-05 22:18 51.19150 -113.99151 6337 ft 226 kts 358°
2026-05-05 22:18 51.20789 -113.99205 6803 ft 244 kts
2026-05-05 22:19 51.22486 -113.98565 7277 ft 260 kts 20°
2026-05-05 22:19 51.24185 -113.97410 7863 ft 271 kts 22°
2026-05-05 22:19 51.25933 -113.96153 8495 ft 279 kts 22°
2026-05-05 22:19 51.27724 -113.94849 9137 ft 287 kts 23°
2026-05-05 22:20 51.29556 -113.93502 9853 ft 293 kts 23°
2026-05-05 22:20 51.31395 -113.92128 10514 ft 297 kts 23°
2026-05-05 22:20 51.33277 -113.90704 11180 ft 301 kts 23°
2026-05-05 22:20 51.35174 -113.89253 11887 ft 303 kts 22°
2026-05-05 22:21 51.37090 -113.87804 12624 ft 305 kts 21°
2026-05-05 22:21 51.39026 -113.86362 13259 ft 310 kts 21°
2026-05-05 22:21 51.41000 -113.84892 13897 ft 315 kts 21°
2026-05-05 22:21 51.43001 -113.83403 14508 ft 318 kts 20°
2026-05-05 22:22 51.45011 -113.81896 15128 ft 320 kts 20°
2026-05-05 22:22 51.47038 -113.80371 15781 ft 321 kts 20°
2026-05-05 22:22 51.49113 -113.79095 16456 ft 318 kts 12°
2026-05-05 22:22 51.51245 -113.78231 17176 ft 315 kts
2026-05-05 22:23 51.53381 -113.77497 17886 ft 314 kts
2026-05-05 22:23 51.55527 -113.76748 18528 ft 316 kts
2026-05-05 22:23 51.57643 -113.76001 19115 ft 315 kts
2026-05-05 22:23 51.59767 -113.75232 19839 ft 309 kts
2026-05-05 22:24 51.61849 -113.74477 20574 ft 304 kts
2026-05-05 22:24 51.63890 -113.73721 21315 ft 298 kts
2026-05-05 22:24 51.65923 -113.72962 21680 ft 305 kts
2026-05-05 22:24 51.68021 -113.72175 21870 ft 314 kts
2026-05-05 22:25 51.70179 -113.71365 22110 ft 322 kts
2026-05-05 22:25 51.72388 -113.70533 22402 ft 329 kts
2026-05-05 22:25 51.74631 -113.69688 22710 ft 334 kts
2026-05-05 22:25 51.76914 -113.68826 23039 ft 338 kts
2026-05-05 22:26 51.79146 -113.67972 23844 ft 328 kts
2026-05-05 22:26 51.81329 -113.67132 24614 ft 317 kts
2026-05-05 22:26 51.83455 -113.66319 25171 ft 313 kts
2026-05-05 22:26 51.85581 -113.65514 25500 ft 314 kts
2026-05-05 22:27 51.87723 -113.64705 25825 ft 316 kts
2026-05-05 22:27 51.89864 -113.63894 26160 ft 317 kts
2026-05-05 22:27 51.92016 -113.63074 26475 ft 318 kts
2026-05-05 22:27 51.94172 -113.62253 26788 ft 319 kts
2026-05-05 22:28 51.96344 -113.61421 27092 ft 321 kts
2026-05-05 22:28 51.98519 -113.60590 27392 ft 322 kts
2026-05-05 22:28 52.00703 -113.59755 27686 ft 323 kts
2026-05-05 22:28 52.02895 -113.58916 27968 ft 324 kts
2026-05-05 22:29 52.05066 -113.58082 28248 ft 325 kts
2026-05-05 22:29 52.07272 -113.57237 28525 ft 326 kts
2026-05-05 22:29 52.09487 -113.56386 28786 ft 328 kts
2026-05-05 22:29 52.11715 -113.55527 29052 ft 329 kts
2026-05-05 22:30 52.13949 -113.54665 29317 ft 330 kts
2026-05-05 22:30 52.16189 -113.53802 29570 ft 331 kts
2026-05-05 22:30 52.18436 -113.52938 29813 ft 332 kts
2026-05-05 22:30 52.20687 -113.52067 30056 ft 333 kts
2026-05-05 22:31 52.22952 -113.51192 30294 ft 334 kts
2026-05-05 22:31 52.25218 -113.50317 30484 ft 335 kts
2026-05-05 22:31 52.27492 -113.49438 30686 ft 336 kts
2026-05-05 22:31 52.29772 -113.48553 30871 ft 337 kts
2026-05-05 22:32 52.32029 -113.47676 31056 ft 338 kts
2026-05-05 22:32 52.34329 -113.46784 31166 ft 341 kts
2026-05-05 22:32 52.36655 -113.45882 31214 ft 346 kts
2026-05-05 22:33 52.41404 -113.44031 31258 ft 355 kts
2026-05-05 22:33 52.46274 -113.42136 31269 ft 365 kts
2026-05-05 22:34 52.51251 -113.40185 31271 ft 369 kts
2026-05-05 22:34 52.56275 -113.38219 31270 ft 372 kts
2026-05-05 22:35 52.61301 -113.36243 31268 ft 375 kts
2026-05-05 22:35 52.66393 -113.34238 31257 ft 377 kts
2026-05-05 22:36 52.71508 -113.32217 31273 ft 378 kts
2026-05-05 22:36 52.76650 -113.30322 31263 ft 378 kts
2026-05-05 22:37 52.81850 -113.29118 31263 ft 377 kts
2026-05-05 22:37 52.87061 -113.28017 31266 ft 378 kts
2026-05-05 22:38 52.92275 -113.26829 31269 ft 378 kts
2026-05-05 22:38 52.97466 -113.25618 31268 ft 379 kts
2026-05-05 22:39 53.02687 -113.24393 31269 ft 379 kts
2026-05-05 22:39 53.07907 -113.23163 31256 ft 379 kts
2026-05-05 22:40 53.13134 -113.21930 31247 ft 379 kts
2026-05-05 22:40 53.18360 -113.20695 31235 ft 379 kts
2026-05-05 22:41 53.23547 -113.19465 31235 ft 379 kts
2026-05-05 22:41 53.28768 -113.18226 31234 ft 379 kts
2026-05-05 22:42 53.33991 -113.16982 31238 ft 379 kts
2026-05-05 22:42 53.39212 -113.15736 31245 ft 379 kts
2026-05-05 22:43 53.44435 -113.14484 31249 ft 379 kts
2026-05-05 22:43 53.49659 -113.13231 31248 ft 379 kts
2026-05-05 22:44 53.54887 -113.11972 31248 ft 379 kts
2026-05-05 22:44 53.60108 -113.10714 31244 ft 379 kts
2026-05-05 22:45 53.65333 -113.09449 31253 ft 379 kts
2026-05-05 22:45 53.70522 -113.08191 31251 ft 379 kts
2026-05-05 22:46 53.75656 -113.05764 31258 ft 386 kts 12°
2026-05-05 22:46 53.80706 -113.02533 31267 ft 388 kts 14°
2026-05-05 22:47 53.85754 -112.99297 31281 ft 388 kts 14°
2026-05-05 22:47 53.90812 -112.96083 31279 ft 388 kts 14°
2026-05-05 22:48 53.95881 -112.92834 31285 ft 389 kts 14°
2026-05-05 22:48 54.00917 -112.89603 31278 ft 389 kts 14°
2026-05-05 22:49 54.05997 -112.86328 31284 ft 390 kts 14°
2026-05-05 22:49 54.11085 -112.83045 31272 ft 390 kts 14°
2026-05-05 22:49 54.13595 -112.81438 30994 ft 388 kts 15°
2026-05-05 22:50 54.16108 -112.79808 31150 ft 386 kts 16°
2026-05-05 22:50 54.21133 -112.76545 31252 ft 386 kts 15°
2026-05-05 22:51 54.26176 -112.73261 31270 ft 389 kts 16°
2026-05-05 22:51 54.31255 -112.69948 31276 ft 391 kts 16°
2026-05-05 22:52 54.36349 -112.66614 31285 ft 393 kts 16°
2026-05-05 22:52 54.41462 -112.63258 31281 ft 394 kts 16°
2026-05-05 22:53 54.46560 -112.59903 31276 ft 395 kts 16°
2026-05-05 22:53 54.51699 -112.56514 31278 ft 396 kts 16°
2026-05-05 22:54 54.56843 -112.53104 31281 ft 396 kts 16°
2026-05-05 22:54 54.60734 -112.50529 31282 ft 397 kts 16°
2026-05-05 22:55 54.64888 -112.47761 31274 ft 397 kts 16°
2026-05-05 22:55 54.70050 -112.44324 31282 ft 397 kts 16°
2026-05-05 22:56 54.74340 -112.41463 31277 ft 397 kts 16°
2026-05-05 22:56 54.80331 -112.37450 31269 ft 396 kts 16°
2026-05-05 22:57 54.84603 -112.34581 31279 ft 395 kts 16°
2026-05-05 22:57 54.89705 -112.31144 31267 ft 391 kts 16°
2026-05-05 22:58 54.94760 -112.27726 31262 ft 388 kts 16°
2026-05-05 22:58 54.99775 -112.24334 31265 ft 385 kts 16°
2026-05-05 22:59 55.04737 -112.20969 31261 ft 383 kts 16°
2026-05-05 22:59 55.09698 -112.17590 31258 ft 382 kts 16°
2026-05-05 23:00 55.17111 -112.12559 30949 ft 378 kts 15°
2026-05-05 23:00 55.19563 -112.10984 30458 ft 372 kts 15°
2026-05-05 23:00 55.21987 -112.09433 29919 ft 370 kts 15°
2026-05-05 23:01 55.24404 -112.07884 29363 ft 370 kts 15°
2026-05-05 23:01 55.26818 -112.06334 28818 ft 369 kts 15°
2026-05-05 23:01 55.29230 -112.04782 28295 ft 369 kts 15°
2026-05-05 23:01 55.31642 -112.03231 27776 ft 369 kts 15°
2026-05-05 23:02 55.34025 -112.01696 27264 ft 370 kts 16°
2026-05-05 23:02 55.36445 -112.00135 26765 ft 370 kts 16°
2026-05-05 23:02 55.38862 -111.98574 26273 ft 370 kts 16°
2026-05-05 23:02 55.41284 -111.97009 25784 ft 370 kts 16°
2026-05-05 23:03 55.43704 -111.95441 25317 ft 371 kts 16°
2026-05-05 23:03 55.46128 -111.93872 24852 ft 371 kts 16°
2026-05-05 23:03 55.48559 -111.92297 24384 ft 372 kts 17°
2026-05-05 23:03 55.50994 -111.90720 23934 ft 372 kts 17°
2026-05-05 23:04 55.53418 -111.89107 23401 ft 373 kts 17°
2026-05-05 23:04 55.55836 -111.87428 22865 ft 374 kts 19°
2026-05-05 23:04 55.58213 -111.85619 22344 ft 370 kts 20°
2026-05-05 23:04 55.60565 -111.83826 21812 ft 367 kts 20°
2026-05-05 23:05 55.62912 -111.82053 21304 ft 365 kts 20°
2026-05-05 23:05 55.65249 -111.80312 20797 ft 364 kts 19°
2026-05-05 23:05 55.67581 -111.78595 20309 ft 363 kts 19°
2026-05-05 23:05 55.69907 -111.76906 19824 ft 358 kts 19°
2026-05-05 23:06 55.72188 -111.75263 19329 ft 349 kts 19°
2026-05-05 23:06 55.74395 -111.73691 18854 ft 343 kts 19°
2026-05-05 23:06 55.76595 -111.72145 18342 ft 337 kts 19°
2026-05-05 23:06 55.78774 -111.70639 17792 ft 333 kts 19°
2026-05-05 23:07 55.80930 -111.69160 17243 ft 333 kts 19°
2026-05-05 23:07 55.83122 -111.67677 16719 ft 339 kts 19°
2026-05-05 23:07 55.85343 -111.66192 16204 ft 342 kts 19°
2026-05-05 23:07 55.87564 -111.64727 15709 ft 344 kts 18°
2026-05-05 23:08 55.89832 -111.63238 15219 ft 347 kts 19°
2026-05-05 23:08 55.92110 -111.61746 14739 ft 349 kts 19°
2026-05-05 23:08 55.94405 -111.60275 14377 ft 347 kts 19°
2026-05-05 23:08 55.96635 -111.58848 14219 ft 338 kts 19°
2026-05-05 23:09 55.98807 -111.57460 14132 ft 323 kts 19°
2026-05-05 23:09 56.00854 -111.56143 14077 ft 308 kts 18°
2026-05-05 23:09 56.02833 -111.54871 14050 ft 294 kts 19°
2026-05-05 23:09 56.04719 -111.53647 14056 ft 281 kts 18°
2026-05-05 23:10 56.06528 -111.52481 14055 ft 276 kts 18°
2026-05-05 23:10 56.08340 -111.51325 14047 ft 274 kts 18°
2026-05-05 23:10 56.10141 -111.50172 14049 ft 275 kts 18°
2026-05-05 23:10 56.11931 -111.49026 14068 ft 277 kts 18°
2026-05-05 23:11 56.13752 -111.47794 14061 ft 279 kts 26°
2026-05-05 23:11 56.15149 -111.45484 14059 ft 281 kts 59°
2026-05-05 23:11 56.15606 -111.42101 14096 ft 285 kts 92°
2026-05-05 23:11 56.14975 -111.38736 14114 ft 290 kts 124°
2026-05-05 23:12 56.13439 -111.36399 14136 ft 294 kts 156°
2026-05-05 23:12 56.11438 -111.35770 14148 ft 295 kts 189°
2026-05-05 23:12 56.09549 -111.36965 14182 ft 293 kts 212°
2026-05-05 23:12 56.07732 -111.38699 14146 ft 297 kts 209°
2026-05-05 23:13 56.05880 -111.40409 14121 ft 299 kts 209°
2026-05-05 23:13 56.04055 -111.42119 14105 ft 297 kts 210°
2026-05-05 23:13 56.02275 -111.43938 14091 ft 292 kts 214°
2026-05-05 23:13 56.00853 -111.46454 14069 ft 285 kts 245°
2026-05-05 23:14 56.00422 -111.49814 14084 ft 276 kts 279°
2026-05-05 23:14 56.01068 -111.52901 14124 ft 269 kts 311°
2026-05-05 23:14 56.02569 -111.54789 14151 ft 267 kts 345°
2026-05-05 23:14 56.04407 -111.54802 14169 ft 269 kts 15°
2026-05-05 23:15 56.06200 -111.53729 14155 ft 274 kts 20°
2026-05-05 23:15 56.07975 -111.52456 14133 ft 275 kts 22°
2026-05-05 23:15 56.09729 -111.51072 14096 ft 275 kts 23°
2026-05-05 23:15 56.11469 -111.49667 14108 ft 274 kts 24°
2026-05-05 23:16 56.13183 -111.48264 14093 ft 274 kts 24°
2026-05-05 23:16 56.14673 -111.46186 14071 ft 277 kts 54°
2026-05-05 23:16 56.15271 -111.42892 14104 ft 285 kts 88°
2026-05-05 23:16 56.14764 -111.39456 14128 ft 291 kts 121°
2026-05-05 23:17 56.13305 -111.36946 14151 ft 295 kts 153°
2026-05-05 23:17 56.11325 -111.36103 14161 ft 296 kts 185°
2026-05-05 23:17 56.09368 -111.37017 14189 ft 295 kts 205°
2026-05-05 23:17 56.07479 -111.38529 14150 ft 298 kts 208°
2026-05-05 23:18 56.05625 -111.40230 14122 ft 298 kts 211°
2026-05-05 23:18 56.03821 -111.42071 14099 ft 298 kts 213°
2026-05-05 23:18 56.02097 -111.44099 14092 ft 293 kts 221°
2026-05-05 23:18 56.00901 -111.46860 14078 ft 281 kts 253°
2026-05-05 23:19 56.00748 -111.50218 14089 ft 269 kts 288°
2026-05-05 23:19 56.01663 -111.53037 14128 ft 264 kts 322°
2026-05-05 23:19 56.03310 -111.54363 14144 ft 264 kts 356°
2026-05-05 23:19 56.05123 -111.53885 14170 ft 267 kts 17°
2026-05-05 23:20 56.06907 -111.52831 14151 ft 273 kts 19°
2026-05-05 23:20 56.08706 -111.51620 14136 ft 279 kts 21°
2026-05-05 23:20 56.10521 -111.50271 14121 ft 285 kts 22°
2026-05-05 23:20 56.12367 -111.48880 14124 ft 290 kts 21°
2026-05-05 23:21 56.14173 -111.47226 14109 ft 295 kts 31°
2026-05-05 23:21 56.15829 -111.45107 13854 ft 296 kts 36°
2026-05-05 23:21 56.17437 -111.42819 13514 ft 294 kts 37°
2026-05-05 23:21 56.19017 -111.40517 13163 ft 292 kts 37°
2026-05-05 23:22 56.20601 -111.38224 12784 ft 291 kts 37°
2026-05-05 23:22 56.22194 -111.36000 12451 ft 289 kts 36°
2026-05-05 23:22 56.23794 -111.33794 12094 ft 288 kts 36°
2026-05-05 23:22 56.25369 -111.31634 11740 ft 287 kts 36°
2026-05-05 23:23 56.26949 -111.29459 11379 ft 285 kts 36°
2026-05-05 23:23 56.28524 -111.27295 11031 ft 284 kts 36°
2026-05-05 23:23 56.30088 -111.25144 10679 ft 282 kts 36°
2026-05-05 23:23 56.31642 -111.23002 10326 ft 281 kts 36°
2026-05-05 23:24 56.33187 -111.20872 9959 ft 279 kts 36°
2026-05-05 23:24 56.34721 -111.18748 9568 ft 277 kts 36°
2026-05-05 23:24 56.36248 -111.16638 9185 ft 276 kts 36°
2026-05-05 23:24 56.37764 -111.14543 8806 ft 274 kts 36°
2026-05-05 23:25 56.39270 -111.12455 8434 ft 272 kts 36°
2026-05-05 23:25 56.40767 -111.10384 8062 ft 270 kts 36°
2026-05-05 23:25 56.42252 -111.08321 7701 ft 268 kts 36°
2026-05-05 23:25 56.43728 -111.06270 7336 ft 267 kts 36°
2026-05-05 23:26 56.45191 -111.04236 6985 ft 265 kts 36°
2026-05-05 23:26 56.46459 -111.02469 6670 ft 263 kts 36°
2026-05-05 23:26 56.47901 -111.00463 6298 ft 261 kts 36°
2026-05-05 23:26 56.49316 -110.98491 5925 ft 259 kts 37°
2026-05-05 23:27 56.50735 -110.96516 5552 ft 256 kts 36°
2026-05-05 23:27 56.52137 -110.94558 5250 ft 252 kts 37°
2026-05-05 23:27 56.53501 -110.92658 5103 ft 241 kts 37°
2026-05-05 23:27 56.54799 -110.90850 5045 ft 229 kts 37°
2026-05-05 23:28 56.56026 -110.89130 5003 ft 217 kts 37°
2026-05-05 23:28 56.57258 -110.87861 4947 ft 197 kts 11°
2026-05-05 23:28 56.58590 -110.87825 4705 ft 189 kts 359°
2026-05-05 23:28 56.59907 -110.87856 4448 ft 190 kts 359°
2026-05-05 23:29 56.61244 -110.87869 4228 ft 192 kts 359°
2026-05-05 23:29 56.62577 -110.87867 4112 ft 191 kts 359°
2026-05-05 23:29 56.63909 -110.88115 4037 ft 197 kts 336°
2026-05-05 23:29 56.64825 -110.89825 4032 ft 189 kts 293°
2026-05-05 23:30 56.65234 -110.91999 4025 ft 183 kts 278°
2026-05-05 23:30 56.65222 -110.94344 4033 ft 189 kts 270°
2026-05-05 23:30 56.65238 -110.96756 4003 ft 191 kts 271°
2026-05-05 23:30 56.65272 -110.99151 3685 ft 180 kts 271°
2026-05-05 23:31 56.65282 -111.01238 3429 ft 150 kts 270°
2026-05-05 23:31 56.65284 -111.02976 3158 ft 131 kts 270°
2026-05-05 23:31 56.65291 -111.04652 2994 ft 134 kts 271°
2026-05-05 23:31 56.65303 -111.06386 2925 ft 141 kts 271°
2026-05-05 23:32 56.65313 -111.08229 2725 ft 149 kts 271°
2026-05-05 23:32 56.65319 -111.10130 2462 ft 151 kts 270°
2026-05-05 23:32 56.65320 -111.12045 2220 ft 152 kts 270°
2026-05-05 23:32 56.65316 -111.13983 2008 ft 153 kts 271°
2026-05-05 23:33 56.65313 -111.15885 1772 ft 150 kts 271°
2026-05-05 23:33 56.65316 -111.17794 1527 ft 152 kts 271°
2026-05-05 23:33 56.65319 -111.19721 1364 ft 153 kts 271°
2026-05-05 23:33 56.65320 -111.21571 1218 ft 135 kts 272°
2026-05-05 23:34 56.65323 -111.22957 1213 ft 85 kts 270°
2026-05-05 23:34 56.65322 -111.23487 1212 ft 16 kts 265°
2026-05-05 23:34 56.65248 -111.23585 1212 ft 15 kts 180°
2026-05-05 23:34 56.65219 -111.23585 1212 ft 0 kts 180°
2026-05-05 23:35 56.65174 -111.23559 1212 ft 10 kts 128°
2026-05-05 23:35 56.65163 -111.23428 1213 ft 12 kts 89°
2026-05-05 23:36 56.65162 -111.23267 1213 ft 14 kts 91°
2026-05-05 23:36 56.65161 -111.23090 1213 ft 15 kts 89°
2026-05-05 23:36 56.65163 -111.22897 1213 ft 15 kts 89°
2026-05-05 23:36 56.65136 -111.22743 1213 ft 12 kts 161°
2026-05-05 23:37 56.65055 -111.22733 1213 ft 12 kts 180°
2026-05-05 23:37 56.65003 -111.22776 1213 ft 8 kts 233°
2026-05-05 23:37 56.64970 -111.22851 1213 ft 6 kts 231°
2026-05-05 23:37 56.64961 -111.22874 1213 ft 0 kts 260°
2026-05-05 23:38 56.64961 -111.22882 1213 ft 0 kts 270°